ALT15 KDEN-KTUS

Flight info

Callsign ALT15
Flight time 1h 49m
Altitude 38000
Route SUDDZ1 SUDDZ ABQ SSO ZONNA2
Aircraft B77W/H-SDE1E2E3FGHIJ2J3J4J5M1RWXY/LB1D1

Departure

Time 2026-05-05 13:34
Airport Denver International Airport (KDEN)

Arrival

Time 2026-05-05 15:23
Airport Tucson International Airport (KTUS)
Time Latitude Longitude Altitude Speed Heading
2026-05-05 13:18 39.85727 -104.67626 5392 ft 2 kts 359°
2026-05-05 13:18 39.85717 -104.67626 5392 ft 1 kts 358°
2026-05-05 13:18 39.85704 -104.67622 5392 ft 2 kts 319°
2026-05-05 13:18 39.85695 -104.67607 5393 ft 2 kts 284°
2026-05-05 13:19 39.85694 -104.67598 5393 ft 1 kts 268°
2026-05-05 13:19 39.85694 -104.67593 5394 ft 0 kts 269°
2026-05-05 13:26 39.85693 -104.67617 5392 ft 6 kts 263°
2026-05-05 13:26 39.85684 -104.67719 5385 ft 15 kts 263°
2026-05-05 13:27 39.85669 -104.67902 5372 ft 21 kts 266°
2026-05-05 13:27 39.85669 -104.68098 5358 ft 15 kts 270°
2026-05-05 13:27 39.85610 -104.68228 5348 ft 19 kts 247°
2026-05-05 13:27 39.85551 -104.68389 5334 ft 21 kts 194°
2026-05-05 13:28 39.85404 -104.68400 5331 ft 21 kts 179°
2026-05-05 13:28 39.85350 -104.68401 5330 ft 1 kts 181°
2026-05-05 13:28 39.85330 -104.68406 5329 ft 5 kts 200°
2026-05-05 13:28 39.85316 -104.68469 5325 ft 11 kts 287°
2026-05-05 13:29 39.85389 -104.68515 5323 ft 13 kts
2026-05-05 13:29 39.85483 -104.68513 5326 ft 12 kts 359°
2026-05-05 13:29 39.85568 -104.68504 5328 ft 11 kts 26°
2026-05-05 13:29 39.85587 -104.68435 5332 ft 7 kts 117°
2026-05-05 13:30 39.85545 -104.68405 5333 ft 8 kts 169°
2026-05-05 13:30 39.85476 -104.68400 5332 ft 11 kts 178°
2026-05-05 13:30 39.85371 -104.68404 5330 ft 18 kts 180°
2026-05-05 13:30 39.85231 -104.68421 5326 ft 21 kts 216°
2026-05-05 13:31 39.85205 -104.68600 5312 ft 24 kts 278°
2026-05-05 13:31 39.85200 -104.68855 5300 ft 32 kts 266°
2026-05-05 13:31 39.85200 -104.69160 5294 ft 33 kts 271°
2026-05-05 13:31 39.85202 -104.69398 5298 ft 14 kts 270°
2026-05-05 13:32 39.85202 -104.69482 5301 ft 6 kts 270°
2026-05-05 13:32 39.85202 -104.69498 5302 ft 0 kts 270°
2026-05-05 13:32 39.85202 -104.69499 5302 ft 0 kts 270°
2026-05-05 13:32 39.85202 -104.69533 5303 ft 7 kts 270°
2026-05-05 13:33 39.85212 -104.69611 5305 ft 8 kts 300°
2026-05-05 13:33 39.85260 -104.69649 5304 ft 9 kts 347°
2026-05-05 13:33 39.85302 -104.69656 5302 ft 0 kts 355°
2026-05-05 13:33 39.85319 -104.69657 5301 ft 4 kts 355°
2026-05-05 13:34 39.85447 -104.69662 5294 ft 53 kts 360°
2026-05-05 13:34 39.86105 -104.69653 5273 ft 135 kts 360°
2026-05-05 13:34 39.87237 -104.69663 5576 ft 177 kts 359°
2026-05-05 13:34 39.88464 -104.69760 6511 ft 185 kts 359°
2026-05-05 13:35 39.89656 -104.69939 7367 ft 180 kts 340°
2026-05-05 13:35 39.90687 -104.71003 7635 ft 206 kts 301°
2026-05-05 13:35 39.91050 -104.72880 7941 ft 231 kts 265°
2026-05-05 13:35 39.90493 -104.74934 8286 ft 254 kts 233°
2026-05-05 13:36 39.89111 -104.76459 8670 ft 276 kts 206°
2026-05-05 13:36 39.87377 -104.77719 9274 ft 291 kts 219°
2026-05-05 13:36 39.85925 -104.79482 10278 ft 290 kts 224°
2026-05-05 13:36 39.84502 -104.81329 11270 ft 292 kts 225°
2026-05-05 13:37 39.83073 -104.83192 12237 ft 295 kts 226°
2026-05-05 13:37 39.81599 -104.85114 12927 ft 309 kts 227°
2026-05-05 13:37 39.80054 -104.87128 13631 ft 324 kts 227°
2026-05-05 13:37 39.78306 -104.89057 14372 ft 339 kts 218°
2026-05-05 13:38 39.76230 -104.90681 15024 ft 358 kts 209°
2026-05-05 13:38 39.73839 -104.91887 15613 ft 379 kts 199°
2026-05-05 13:38 39.71233 -104.92590 16261 ft 398 kts 190°
2026-05-05 13:38 39.68385 -104.92733 16906 ft 418 kts 180°
2026-05-05 13:39 39.65494 -104.92197 17731 ft 430 kts 170°
2026-05-05 13:39 39.62542 -104.91500 18648 ft 435 kts 176°
2026-05-05 13:39 39.59540 -104.91054 19716 ft 437 kts 176°
2026-05-05 13:39 39.56526 -104.90625 20820 ft 438 kts 177°
2026-05-05 13:40 39.53464 -104.90191 21776 ft 443 kts 177°
2026-05-05 13:40 39.50391 -104.89756 22624 ft 449 kts 177°
2026-05-05 13:40 39.47275 -104.89315 23522 ft 454 kts 178°
2026-05-05 13:40 39.44147 -104.88872 24428 ft 457 kts 178°
2026-05-05 13:41 39.41002 -104.88427 25309 ft 459 kts 179°
2026-05-05 13:41 39.37819 -104.87977 26193 ft 462 kts 180°
2026-05-05 13:41 39.34603 -104.87522 27077 ft 464 kts 180°
2026-05-05 13:41 39.31418 -104.87073 27951 ft 465 kts 181°
2026-05-05 13:42 39.28197 -104.86618 28759 ft 468 kts 182°
2026-05-05 13:42 39.24994 -104.86167 29575 ft 469 kts 182°
2026-05-05 13:42 39.21751 -104.85709 30434 ft 469 kts 183°
2026-05-05 13:42 39.18545 -104.85255 31342 ft 466 kts 184°
2026-05-05 13:43 39.15339 -104.84811 32204 ft 460 kts 186°
2026-05-05 13:43 39.12177 -104.84725 32982 ft 445 kts 194°
2026-05-05 13:43 39.09176 -104.85156 33773 ft 432 kts 201°
2026-05-05 13:43 39.06319 -104.86044 34541 ft 422 kts 206°
2026-05-05 13:44 39.03536 -104.87138 35425 ft 417 kts 207°
2026-05-05 13:44 39.00795 -104.88223 36216 ft 414 kts 207°
2026-05-05 13:44 38.98026 -104.89317 36840 ft 413 kts 207°
2026-05-05 13:44 38.95277 -104.90397 37348 ft 414 kts 207°
2026-05-05 13:45 38.92541 -104.91467 37855 ft 414 kts 207°
2026-05-05 13:45 38.89735 -104.92563 37980 ft 417 kts 207°
2026-05-05 13:45 38.84208 -104.94707 37988 ft 413 kts 207°
2026-05-05 13:46 38.78679 -104.96850 37982 ft 415 kts 207°
2026-05-05 13:46 38.73157 -104.98983 37991 ft 415 kts 207°
2026-05-05 13:47 38.67635 -105.01107 37993 ft 414 kts 207°
2026-05-05 13:47 38.62132 -105.03219 38022 ft 414 kts 207°
2026-05-05 13:48 38.56594 -105.05341 38033 ft 415 kts 207°
2026-05-05 13:48 38.51071 -105.07452 38033 ft 412 kts 207°
2026-05-05 13:49 38.45580 -105.09551 38035 ft 414 kts 207°
2026-05-05 13:49 38.40083 -105.11647 38034 ft 413 kts 206°
2026-05-05 13:50 38.34594 -105.13737 38031 ft 412 kts 206°
2026-05-05 13:50 38.29109 -105.15821 38034 ft 412 kts 206°
2026-05-05 13:51 38.23586 -105.17918 38027 ft 413 kts 206°
2026-05-05 13:51 38.18076 -105.20005 38025 ft 413 kts 206°
2026-05-05 13:52 38.12597 -105.22078 38018 ft 412 kts 206°
2026-05-05 13:52 38.07091 -105.24158 38015 ft 412 kts 206°
2026-05-05 13:53 38.01617 -105.26222 38012 ft 411 kts 206°
2026-05-05 13:53 37.96133 -105.28287 38011 ft 410 kts 206°
2026-05-05 13:54 37.90682 -105.30341 38013 ft 410 kts 208°
2026-05-05 13:54 37.85466 -105.33031 38036 ft 402 kts 213°
2026-05-05 13:55 37.80361 -105.35847 38038 ft 402 kts 212°
2026-05-05 13:55 37.75207 -105.38682 38042 ft 403 kts 212°
2026-05-05 13:56 37.70067 -105.41499 38046 ft 401 kts 212°
2026-05-05 13:56 37.64958 -105.44297 38043 ft 402 kts 212°
2026-05-05 13:57 37.59837 -105.47096 38041 ft 400 kts 212°
2026-05-05 13:57 37.54750 -105.49870 38047 ft 398 kts 213°
2026-05-05 13:58 37.49661 -105.52644 38051 ft 400 kts 212°
2026-05-05 13:58 37.44552 -105.55423 38051 ft 399 kts 212°
2026-05-05 13:59 37.36843 -105.59608 38049 ft 397 kts 212°
2026-05-05 14:00 37.29992 -105.63320 38052 ft 398 kts 212°
2026-05-05 14:00 37.24039 -105.66541 38075 ft 399 kts 212°
2026-05-05 14:01 37.18941 -105.69293 38066 ft 400 kts 212°
2026-05-05 14:01 37.13840 -105.72041 38075 ft 396 kts 212°
2026-05-05 14:02 37.08754 -105.74782 38074 ft 399 kts 212°
2026-05-05 14:02 37.03622 -105.77540 38079 ft 397 kts 212°
2026-05-05 14:03 36.98582 -105.80245 38078 ft 397 kts 212°
2026-05-05 14:03 36.93460 -105.82990 38066 ft 397 kts 212°
2026-05-05 14:04 36.88399 -105.85699 38063 ft 396 kts 212°
2026-05-05 14:04 36.83306 -105.88421 38062 ft 396 kts 212°
2026-05-05 14:05 36.78252 -105.91119 38059 ft 397 kts 212°
2026-05-05 14:05 36.73192 -105.93815 38050 ft 397 kts 212°
2026-05-05 14:06 36.68119 -105.96514 38045 ft 397 kts 212°
2026-05-05 14:06 36.63023 -105.99223 38053 ft 400 kts 212°
2026-05-05 14:07 36.57859 -106.01962 38059 ft 397 kts 212°
2026-05-05 14:07 36.52753 -106.04668 38056 ft 400 kts 212°
2026-05-05 14:08 36.47654 -106.07365 38055 ft 399 kts 212°
2026-05-05 14:08 36.42565 -106.10053 38051 ft 398 kts 212°
2026-05-05 14:09 36.37444 -106.12756 38046 ft 400 kts 212°
2026-05-05 14:09 36.32355 -106.15436 38045 ft 398 kts 211°
2026-05-05 14:10 36.27231 -106.18132 38042 ft 401 kts 212°
2026-05-05 14:10 36.22117 -106.20816 38042 ft 397 kts 212°
2026-05-05 14:11 36.17025 -106.23489 38040 ft 400 kts 211°
2026-05-05 14:11 36.11912 -106.26166 38037 ft 399 kts 211°
2026-05-05 14:12 36.06785 -106.28849 38035 ft 401 kts 212°
2026-05-05 14:12 36.01672 -106.31519 38038 ft 399 kts 211°
2026-05-05 14:13 35.96541 -106.34195 38042 ft 399 kts 211°
2026-05-05 14:13 35.91450 -106.36846 38038 ft 399 kts 212°
2026-05-05 14:14 35.86313 -106.39519 38058 ft 400 kts 211°
2026-05-05 14:14 35.81214 -106.42166 38054 ft 400 kts 212°
2026-05-05 14:15 35.76093 -106.44821 38037 ft 397 kts 212°
2026-05-05 14:15 35.71008 -106.47455 38031 ft 397 kts 212°
2026-05-05 14:16 35.65917 -106.50087 38035 ft 394 kts 212°
2026-05-05 14:16 35.60878 -106.52691 38030 ft 395 kts 212°
2026-05-05 14:17 35.55796 -106.55312 38023 ft 394 kts 212°
2026-05-05 14:17 35.50782 -106.57893 38024 ft 392 kts 212°
2026-05-05 14:18 35.45708 -106.60506 38021 ft 396 kts 212°
2026-05-05 14:18 35.40650 -106.63103 38017 ft 393 kts 211°
2026-05-05 14:19 35.35606 -106.65690 38031 ft 392 kts 211°
2026-05-05 14:19 35.30559 -106.68276 38034 ft 393 kts 212°
2026-05-05 14:20 35.25533 -106.70847 38041 ft 390 kts 211°
2026-05-05 14:20 35.20564 -106.73385 38038 ft 390 kts 211°
2026-05-05 14:21 35.15508 -106.75965 38032 ft 389 kts 211°
2026-05-05 14:21 35.10548 -106.78492 38032 ft 390 kts 211°
2026-05-05 14:22 35.05539 -106.81094 38028 ft 385 kts 214°
2026-05-05 14:22 35.01067 -106.84582 38020 ft 381 kts 223°
2026-05-05 14:23 34.96908 -106.88444 38028 ft 373 kts 222°
2026-05-05 14:23 34.92795 -106.92242 38018 ft 373 kts 223°
2026-05-05 14:24 34.88636 -106.96061 38039 ft 374 kts 223°
2026-05-05 14:24 34.84501 -106.99844 38039 ft 372 kts 223°
2026-05-05 14:25 34.80337 -107.03648 38039 ft 371 kts 222°
2026-05-05 14:25 34.76226 -107.07398 38037 ft 372 kts 223°
2026-05-05 14:26 34.72094 -107.11159 38033 ft 370 kts 223°
2026-05-05 14:26 34.67981 -107.14899 38042 ft 368 kts 223°
2026-05-05 14:27 34.63869 -107.18636 38047 ft 370 kts 223°
2026-05-05 14:27 34.59731 -107.22390 38040 ft 369 kts 223°
2026-05-05 14:28 34.55650 -107.26086 38038 ft 369 kts 223°
2026-05-05 14:28 34.51517 -107.29827 38045 ft 370 kts 222°
2026-05-05 14:29 34.47405 -107.33543 38043 ft 368 kts 222°
2026-05-05 14:29 34.43288 -107.37259 38033 ft 368 kts 222°
2026-05-05 14:30 34.39175 -107.40968 38032 ft 369 kts 222°
2026-05-05 14:30 34.35086 -107.44648 38044 ft 367 kts 223°
2026-05-05 14:31 34.30992 -107.48329 38044 ft 367 kts 223°
2026-05-05 14:31 34.26861 -107.52040 38040 ft 368 kts 222°
2026-05-05 14:32 34.22767 -107.55712 38039 ft 367 kts 222°
2026-05-05 14:32 34.18657 -107.59393 38041 ft 369 kts 223°
2026-05-05 14:33 34.14531 -107.63085 38039 ft 366 kts 223°
2026-05-05 14:33 34.10451 -107.66731 38069 ft 366 kts 222°
2026-05-05 14:34 34.06351 -107.70390 38068 ft 367 kts 223°
2026-05-05 14:34 34.02262 -107.74035 38074 ft 366 kts 222°
2026-05-05 14:35 33.98159 -107.77689 38071 ft 368 kts 222°
2026-05-05 14:35 33.94047 -107.81345 38075 ft 366 kts 222°
2026-05-05 14:36 33.89955 -107.84981 38077 ft 368 kts 221°
2026-05-05 14:36 33.85814 -107.88654 38089 ft 368 kts 222°
2026-05-05 14:37 33.81727 -107.92275 38101 ft 368 kts 221°
2026-05-05 14:37 33.77598 -107.95928 38101 ft 368 kts 221°
2026-05-05 14:38 33.73484 -107.99564 38099 ft 366 kts 221°
2026-05-05 14:38 33.69379 -108.03188 38092 ft 368 kts 221°
2026-05-05 14:39 33.65264 -108.06815 38088 ft 365 kts 222°
2026-05-05 14:39 33.61183 -108.10409 38093 ft 366 kts 222°
2026-05-05 14:40 33.57077 -108.14020 38087 ft 363 kts 221°
2026-05-05 14:40 33.53009 -108.17596 38089 ft 367 kts 221°
2026-05-05 14:41 33.48914 -108.21188 38083 ft 361 kts 221°
2026-05-05 14:41 33.44865 -108.24737 38083 ft 365 kts 223°
2026-05-05 14:42 33.40758 -108.28332 38082 ft 367 kts 222°
2026-05-05 14:42 33.36662 -108.31911 38073 ft 363 kts 223°
2026-05-05 14:43 33.32597 -108.35461 38071 ft 363 kts 221°
2026-05-05 14:43 33.28515 -108.39023 38068 ft 363 kts 221°
2026-05-05 14:44 33.24386 -108.42620 38069 ft 365 kts 223°
2026-05-05 14:44 33.20309 -108.46166 38065 ft 364 kts 223°
2026-05-05 14:45 33.16224 -108.49717 38062 ft 361 kts 222°
2026-05-05 14:45 33.12140 -108.53264 38052 ft 363 kts 221°
2026-05-05 14:46 33.08085 -108.56779 38051 ft 361 kts 223°
2026-05-05 14:46 33.03988 -108.60327 38048 ft 363 kts 222°
2026-05-05 14:47 32.99926 -108.63843 38052 ft 363 kts 221°
2026-05-05 14:47 32.95826 -108.67385 38076 ft 363 kts 221°
2026-05-05 14:48 32.91765 -108.70889 38075 ft 361 kts 222°
2026-05-05 14:48 32.87659 -108.74431 38088 ft 363 kts 220°
2026-05-05 14:49 32.83589 -108.77934 38099 ft 363 kts 221°
2026-05-05 14:49 32.79476 -108.81473 38088 ft 367 kts 221°
2026-05-05 14:50 32.75370 -108.84998 38094 ft 364 kts 222°
2026-05-05 14:50 32.71249 -108.88535 38080 ft 364 kts 221°
2026-05-05 14:51 32.67146 -108.92051 38074 ft 365 kts 221°
2026-05-05 14:51 32.63084 -108.95525 37828 ft 356 kts 221°
2026-05-05 14:52 32.61084 -108.97235 37187 ft 353 kts 221°
2026-05-05 14:52 32.59113 -108.98920 36605 ft 349 kts 221°
2026-05-05 14:52 32.57133 -109.00615 36034 ft 358 kts 221°
2026-05-05 14:52 32.55070 -109.02382 35415 ft 374 kts 220°
2026-05-05 14:53 32.52949 -109.04193 34737 ft 376 kts 221°
2026-05-05 14:53 32.50840 -109.05990 34057 ft 376 kts 220°
2026-05-05 14:53 32.48717 -109.07799 33389 ft 378 kts 220°
2026-05-05 14:53 32.46567 -109.09631 32733 ft 383 kts 220°
2026-05-05 14:54 32.44405 -109.11471 32054 ft 391 kts 220°
2026-05-05 14:54 32.42168 -109.13376 31305 ft 396 kts 219°
2026-05-05 14:54 32.39938 -109.15271 30660 ft 396 kts 220°
2026-05-05 14:54 32.37726 -109.17149 30254 ft 394 kts 219°
2026-05-05 14:55 32.35496 -109.19042 29810 ft 396 kts 220°
2026-05-05 14:55 32.33268 -109.20941 29339 ft 395 kts 220°
2026-05-05 14:55 32.31181 -109.23070 28840 ft 392 kts 227°
2026-05-05 14:55 32.29389 -109.25456 28345 ft 390 kts 233°
2026-05-05 14:56 32.27892 -109.28075 27876 ft 386 kts 238°
2026-05-05 14:56 32.26689 -109.30921 27363 ft 383 kts 245°
2026-05-05 14:56 32.25830 -109.33858 26866 ft 380 kts 251°
2026-05-05 14:56 32.25303 -109.36871 26390 ft 380 kts 256°
2026-05-05 14:57 32.24974 -109.39994 25895 ft 380 kts 257°
2026-05-05 14:57 32.24647 -109.43060 25405 ft 380 kts 257°
2026-05-05 14:57 32.24297 -109.46147 24900 ft 376 kts 256°
2026-05-05 14:57 32.23941 -109.49162 24423 ft 373 kts 257°
2026-05-05 14:58 32.23576 -109.52182 23945 ft 370 kts 256°
2026-05-05 14:58 32.23208 -109.55154 23482 ft 368 kts 256°
2026-05-05 14:58 32.22834 -109.58119 23021 ft 365 kts 256°
2026-05-05 14:58 32.22459 -109.61058 22557 ft 363 kts 255°
2026-05-05 14:59 32.22083 -109.63982 22112 ft 361 kts 256°
2026-05-05 14:59 32.21704 -109.66914 21666 ft 360 kts 255°
2026-05-05 14:59 32.21323 -109.69836 21214 ft 360 kts 256°
2026-05-05 14:59 32.20988 -109.72773 20781 ft 360 kts 258°
2026-05-05 15:00 32.20765 -109.75663 20475 ft 360 kts 259°
2026-05-05 15:00 32.20616 -109.77620 20270 ft 361 kts 259°
2026-05-05 15:00 32.20306 -109.81550 19839 ft 362 kts 259°
2026-05-05 15:00 32.20067 -109.84491 19506 ft 362 kts 260°
2026-05-05 15:01 32.19825 -109.87431 19177 ft 361 kts 259°
2026-05-05 15:01 32.19581 -109.90374 18843 ft 360 kts 259°
2026-05-05 15:01 32.19335 -109.93312 18511 ft 360 kts 259°
2026-05-05 15:01 32.19089 -109.96237 18185 ft 362 kts 260°
2026-05-05 15:02 32.18838 -109.99216 17838 ft 362 kts 260°
2026-05-05 15:02 32.18588 -110.02166 17507 ft 363 kts 261°
2026-05-05 15:02 32.18338 -110.05116 17174 ft 359 kts 260°
2026-05-05 15:02 32.18090 -110.08031 16850 ft 356 kts 261°
2026-05-05 15:03 32.17844 -110.10923 16522 ft 354 kts 261°
2026-05-05 15:03 32.17598 -110.13786 16203 ft 352 kts 261°
2026-05-05 15:03 32.17352 -110.16657 15888 ft 348 kts 261°
2026-05-05 15:03 32.17114 -110.19437 15562 ft 338 kts 260°
2026-05-05 15:04 32.16884 -110.22122 15261 ft 326 kts 260°
2026-05-05 15:04 32.16657 -110.24740 14969 ft 314 kts 261°
2026-05-05 15:04 32.16436 -110.27277 14691 ft 309 kts 260°
2026-05-05 15:04 32.16215 -110.29802 14406 ft 306 kts 261°
2026-05-05 15:05 32.16017 -110.34795 13886 ft 307 kts 269°
2026-05-05 15:05 32.16159 -110.37296 13675 ft 308 kts 269°
2026-05-05 15:05 32.16308 -110.39829 13479 ft 308 kts 270°
2026-05-05 15:06 32.16454 -110.42342 13283 ft 307 kts 270°
2026-05-05 15:06 32.16597 -110.44852 13085 ft 307 kts 270°
2026-05-05 15:06 32.16739 -110.47337 12869 ft 307 kts 270°
2026-05-05 15:06 32.16880 -110.49865 12645 ft 307 kts 270°
2026-05-05 15:07 32.17020 -110.52371 12439 ft 308 kts 270°
2026-05-05 15:07 32.17162 -110.54890 12214 ft 308 kts 271°
2026-05-05 15:07 32.17301 -110.57391 12007 ft 306 kts 271°
2026-05-05 15:07 32.17439 -110.59881 11795 ft 307 kts 271°
2026-05-05 15:08 32.17578 -110.62399 11589 ft 306 kts 271°
2026-05-05 15:08 32.17715 -110.64886 11384 ft 305 kts 271°
2026-05-05 15:08 32.17853 -110.67395 11183 ft 305 kts 270°
2026-05-05 15:08 32.17989 -110.69883 10991 ft 301 kts 270°
2026-05-05 15:09 32.18122 -110.72302 10779 ft 291 kts 270°
2026-05-05 15:09 32.18250 -110.74636 10586 ft 280 kts 270°
2026-05-05 15:09 32.18371 -110.76884 10406 ft 270 kts 270°
2026-05-05 15:09 32.18488 -110.79041 10243 ft 260 kts 270°
2026-05-05 15:10 32.18601 -110.81170 10064 ft 256 kts 270°
2026-05-05 15:10 32.18712 -110.83260 9877 ft 256 kts 270°
2026-05-05 15:10 32.19030 -110.85308 9630 ft 259 kts 288°
2026-05-05 15:10 32.20021 -110.87113 9266 ft 267 kts 306°
2026-05-05 15:11 32.21326 -110.88716 8834 ft 272 kts 309°
2026-05-05 15:11 32.22651 -110.90260 8599 ft 267 kts 310°
2026-05-05 15:11 32.23981 -110.91813 8471 ft 264 kts 310°
2026-05-05 15:11 32.25258 -110.93308 8467 ft 250 kts 309°
2026-05-05 15:12 32.26448 -110.94704 8448 ft 238 kts 310°
2026-05-05 15:12 32.27632 -110.96099 8190 ft 239 kts 309°
2026-05-05 15:12 32.28799 -110.97475 7968 ft 236 kts 309°
2026-05-05 15:12 32.29951 -110.98830 7813 ft 229 kts 309°
2026-05-05 15:13 32.31061 -111.00133 7704 ft 220 kts 309°
2026-05-05 15:13 32.32120 -111.01381 7576 ft 211 kts 309°
2026-05-05 15:13 32.33136 -111.02578 7462 ft 203 kts 309°
2026-05-05 15:13 32.34128 -111.03749 7361 ft 201 kts 309°
2026-05-05 15:14 32.35116 -111.04916 7260 ft 197 kts 309°
2026-05-05 15:14 32.36071 -111.06040 7157 ft 194 kts 308°
2026-05-05 15:14 32.37023 -111.07165 7051 ft 195 kts 308°
2026-05-05 15:14 32.37967 -111.08302 6941 ft 192 kts 302°
2026-05-05 15:15 32.38506 -111.09656 6834 ft 172 kts 276°
2026-05-05 15:15 32.38527 -111.10985 6745 ft 154 kts 255°
2026-05-05 15:15 32.38165 -111.12150 6673 ft 151 kts 237°
2026-05-05 15:15 32.37503 -111.13080 6582 ft 149 kts 220°
2026-05-05 15:16 32.36603 -111.13694 6484 ft 148 kts 202°
2026-05-05 15:16 32.35592 -111.13730 6413 ft 151 kts 168°
2026-05-05 15:16 32.34569 -111.13320 6303 ft 157 kts 167°
2026-05-05 15:16 32.33538 -111.12897 6114 ft 156 kts 167°
2026-05-05 15:17 32.32501 -111.12472 5928 ft 156 kts 166°
2026-05-05 15:17 32.31484 -111.12054 5801 ft 153 kts 166°
2026-05-05 15:17 32.30467 -111.11637 5768 ft 155 kts 166°
2026-05-05 15:17 32.29451 -111.11221 5708 ft 155 kts 166°
2026-05-05 15:18 32.28435 -111.10802 5638 ft 155 kts 166°
2026-05-05 15:18 32.27414 -111.10385 5586 ft 156 kts 165°
2026-05-05 15:18 32.26383 -111.09962 5533 ft 156 kts 165°
2026-05-05 15:18 32.25355 -111.09538 5454 ft 156 kts 165°
2026-05-05 15:19 32.24405 -111.08955 5367 ft 157 kts 144°
2026-05-05 15:19 32.23615 -111.08031 5325 ft 162 kts 137°
2026-05-05 15:19 32.22850 -111.07054 5269 ft 160 kts 139°
2026-05-05 15:19 32.22062 -111.06130 5154 ft 161 kts 140°
2026-05-05 15:20 32.21280 -111.05225 4950 ft 157 kts 140°
2026-05-05 15:20 32.20499 -111.04315 4755 ft 157 kts 139°
2026-05-05 15:20 32.19720 -111.03404 4550 ft 156 kts 139°
2026-05-05 15:20 32.18957 -111.02515 4353 ft 151 kts 138°
2026-05-05 15:21 32.18229 -111.01662 4175 ft 147 kts 138°
2026-05-05 15:21 32.17504 -111.00816 3984 ft 145 kts 137°
2026-05-05 15:21 32.16795 -110.99985 3802 ft 144 kts 136°
2026-05-05 15:21 32.16073 -110.99143 3612 ft 144 kts 136°
2026-05-05 15:22 32.15366 -110.98316 3430 ft 144 kts 135°
2026-05-05 15:22 32.14659 -110.97488 3240 ft 144 kts 134°
2026-05-05 15:22 32.13947 -110.96657 3050 ft 143 kts 134°
2026-05-05 15:22 32.13237 -110.95828 2863 ft 143 kts 134°
2026-05-05 15:23 32.12533 -110.95004 2675 ft 143 kts 134°
2026-05-05 15:23 32.11838 -110.94193 2607 ft 133 kts 137°
2026-05-05 15:23 32.11359 -110.93645 2621 ft 60 kts 134°
2026-05-05 15:23 32.11143 -110.93371 2630 ft 25 kts 109°
2026-05-05 15:24 32.11135 -110.93271 2631 ft 12 kts 84°
2026-05-05 15:24 32.11188 -110.93152 2631 ft 10 kts 45°
2026-05-05 15:24 32.11251 -110.93074 2632 ft 10 kts 57°
2026-05-05 15:24 32.11288 -110.93047 2631 ft 5 kts 271°
2026-05-05 15:25 32.11210 -110.93120 2631 ft 24 kts 231°
2026-05-05 15:25 32.11284 -110.93300 2628 ft 37 kts 304°
2026-05-05 15:25 32.11514 -110.93594 2622 ft 42 kts 320°
2026-05-05 15:25 32.11678 -110.93770 2615 ft 39 kts 316°
2026-05-05 15:26 32.11816 -110.93928 2611 ft 14 kts 314°
2026-05-05 15:26 32.11876 -110.93958 2610 ft 5 kts 24°
2026-05-05 15:26 32.11950 -110.93905 2609 ft 15 kts 25°
2026-05-05 15:26 32.12011 -110.93879 2607 ft 0 kts 19°